Location: Six Mile Lake
(44.9000°N, 79.7170°W)
Time: 23:57:54
(UTC-04:00)

BEESAT - Pass Details

Date: 30 June 2022
Orbit: 700 x 706 km, 98.6° (Epoch: 07 August)

Event Time Altitude Azimuth Distance (km) Brightness Sun altitude
Rises 22:06:25 0° 10° (N) 3,104 ? -8.6°
Reaches altitude 10° 22:08:42 10° 8° (N) 2,182 ? -8.9°
Maximum altitude 22:13:25 63° 288° (WNW) 786 ? -9.5°
Drops below altitude 10° 22:18:06 10° 208° (SSW) 2,169 ? -10.0°
Sets 22:20:22 0° 205° (SSW) 3,084 ? -10.3°
